[[{"header":{"parameterUnit":"m.s-1","parameterCategory":1,"la1":30.2991,"la2":30.254,"lo1":-89.0895,"lo2":-89.0444,"dy":0.0017,"dx":0.0017,"nx":28,"ny":28,"refTime":"2023-04-08T21:00:00:Z","depth":0,"parameterNumber":2,"parameterNumberName":"U-component_of_WINDS"},"data":[0,0,0,0,0,0,0,0,0,0,0,0,0,0,0,0,0,0,0,0,0,0,0,0,0,0,0,0,0,0,0,0,0,0,0,0,0,0,0,0,0,0,0,0,0,0,0,0,0,0,0,0,0,0,0,0,0,0,-2.5527,-2.5525,0,-2.5333,-2.5331,-2.5328,-2.5183,-2.5182,-2.5181,-2.518,-2.4971,-2.4966,-2.4962,0,0,0,0,0,0,0,0,0,0,0,0,0,-2.5763,-2.576,-2.5528,-2.5525,-2.5523,-2.5333,-2.533,-2.5328,-2.5184,-2.5182,-2.5181,-2.5179,-2.4972,-2.4967,-2.4961,0,0,0,0,0,0,0,0,0,0,0,0,0,-2.5624,-2.5759,-2.5528,-2.5428,-2.5417,-2.5334,-2.533,-2.5327,-2.5184,-2.5182,-2.518,-2.5178,-2.4974,-2.4967,-2.4961,-2.4958,0,0,-2.4941,-2.4938,0,0,0,0,0,0,0,0,-2.5632,-2.5615,-2.5445,-2.5435,-2.5423,-2.5281,-2.5336,-2.5203,-2.5184,-2.5272,-2.518,-2.5178,-2.5075,-2.506,-2.5027,-2.4948,-2.4939,-2.494,-2.4936,-2.4933,-2.4931,0,0,0,0,0,0,0,-2.5642,-2.5623,-2.545,-2.5443,-2.5429,-2.5389,-2.5368,-2.5311,-2.5186,-2.5265,-2.5254,-2.5233,-2.5068,-2.5034,-2.5021,-2.4936,-2.494,-2.4934,-2.493,-2.4928,-2.4839,-2.484,0,0,0,0,0,0,-2.5668,-2.5632,-2.5456,-2.5444,-2.5525,-2.5387,-2.5362,-2.5328,-2.5186,-2.5163,-2.5235,-2.5227,-2.5046,-2.5029,-2.5013,-2.4997,-2.4933,-2.4927,-2.4923,-2.4837,-2.4839,-2.4841,0,0,0,0,0,0,-2.5674,-2.5654,-2.5464,-2.5535,-2.5508,-2.5385,-2.5347,-2.5325,-2.5291,-2.5164,-2.514,-2.5223,-2.5044,-2.5022,-2.4972,-2.4987,-2.4924,-2.4918,-2.4835,-2.4838,-2.484,-2.4967,0,0,0,0,0,0,-2.5682,-2.5657,-2.5658,-2.5536,-2.5505,-2.5431,-2.5348,-2.5323,-2.5281,-2.5269,-2.5147,-2.5125,-2.504,-2.4983,-2.4965,-2.4977,-2.4913,-2.4833,-2.4836,-2.4839,-2.4961,-2.4973,-2.4984,0,0,0,0,0,-2.569,-2.57,-2.5659,-2.5638,-2.5503,-2.5432,-2.5413,-2.5319,-2.5283,-2.528,-2.5198,-2.5129,-2.4989,-2.4979,-2.4958,-2.4968,-2.4832,-2.4835,-2.4839,-2.4955,-2.4971,-2.4984,0,0,0,0,0,0,-2.5824,-2.5682,-2.5635,-2.5606,-2.5533,-2.5408,-2.5402,-2.5339,-2.5272,-2.5263,-2.5145,-2.5119,-2.508,-2.5019,-2.501,-2.4955,-2.4901,-2.4901,-2.4997,-2.501,-2.5022,-2.5037,-2.4907,0,0,0,0,0,-2.585,-2.5808,-2.5685,-2.5671,-2.5637,-2.5526,-2.5492,-2.5425,-2.5343,-2.531,-2.5224,-2.5144,-2.5081,-2.5042,-2.4978,-2.4951,-2.492,-2.4947,-2.4959,-2.4969,-2.497,-2.4946,-2.4956,-2.4852,-2.4852,-2.4852,0,0,-2.5904,-2.5821,-2.5801,-2.5696,-2.5631,-2.5585,-2.5501,-2.5457,-2.5421,-2.5302,-2.525,-2.5184,-2.5086,-2.5047,-2.5025,-2.4994,-2.4992,-2.4974,-2.4983,-2.4978,-2.4951,-2.4961,-2.497,-2.4855,-2.4854,-2.4854,0,0,-2.5977,-2.5913,-2.5893,-2.5829,-2.5733,-2.5659,-2.5655,-2.5539,-2.5491,-2.5437,-2.5346,-2.5299,-2.5195,-2.5128,-2.5081,-2.5126,-2.5058,-2.5108,-2.5169,-2.5148,-2.5156,-2.5162,-2.5175,-2.5182,-2.511,-2.511,-2.511,0,-2.6055,-2.5987,-2.5889,-2.5851,-2.5805,-2.5698,-2.5674,-2.5617,-2.5503,-2.5472,-2.5441,-2.5306,-2.5232,-2.5174,-2.5185,-2.5151,-2.5138,-2.5121,-2.5163,-2.5169,-2.5173,-2.5184,-2.519,-2.5116,-2.5116,-2.5115,-2.5114,0,-2.6085,-2.6038,-2.6033,-2.5929,-2.5883,-2.5852,-2.5746,-2.571,-2.5647,-2.5575,-2.5519,-2.5427,-2.5341,-2.5322,-2.526,-2.5253,-2.5237,-2.5186,-2.5129,-2.5192,-2.52,-2.5203,-2.5126,-2.5123,-2.5122,-2.512,0,0,-2.6237,-2.608,-2.6079,-2.6029,-2.5914,-2.5874,-2.5836,-2.5754,-2.5724,-2.5649,-2.5611,-2.5524,-2.5475,-2.5421,-2.535,-2.5332,-2.5369,-2.5281,-2.5277,-2.5299,-2.5352,-2.539,-2.5397,-2.5324,-2.5325,-2.5325,-2.5359,0,-2.6291,-2.6222,-2.6132,-2.609,-2.6044,-2.594,-2.5906,-2.583,-2.5761,-2.5708,-2.5629,-2.5569,-2.5511,-2.5477,-2.5455,-2.537,-2.5378,-2.5366,-2.5283,-2.5282,-2.531,-2.5401,-2.5442,-2.5479,-2.5362,-2.5363,-2.5363,0,-2.6345,-2.6277,-2.6233,-2.6119,-2.6096,-2.6068,-2.5984,-2.5937,-2.5845,-2.5796,-2.5735,-2.5658,-2.5608,-2.5559,-2.5485,-2.5479,-2.5439,-2.5392,-2.539,-2.5377,-2.5325,-2.5388,-2.5489,-2.5494,-2.5368,-2.5367,-2.5367,0,-2.6457,-2.6355,-2.6314,-2.6275,-2.6142,-2.6124,-2.6067,-2.5975,-2.593,-2.5855,-2.5824,-2.5744,-2.5699,-2.5637,-2.5538,-2.5512,-2.5473,-2.5417,-2.5427,-2.5429,-2.5422,-2.5423,-2.5515,-2.5401,-2.5401,-2.5401,-2.5401,0,-2.6525,-2.6501,-2.6362,-2.6337,-2.6305,-2.62,-2.617,-2.6103,-2.6021,-2.5977,-2.5882,-2.5842,-2.5716,-2.5659,-2.5581,-2.553,-2.5511,-2.5466,-2.5445,-2.5473,-2.5479,-2.5444,-2.5438,-2.5402,-2.5402,-2.5402,-2.5401,0,-2.6645,-2.6552,-2.65,-2.6379,-2.6348,-2.6329,-2.6223,-2.6192,-2.6117,-2.6063,-2.6044,-2.5925,-2.5853,-2.5749,-2.5645,-2.5592,-2.5551,-2.5519,-2.5584,-2.5571,-2.5586,-2.5585,-2.5656,-2.5659,-2.5547,-2.5548,-2.5549,0,-2.6694,-2.6673,-2.6551,-2.6516,-2.6463,-2.6409,-2.6364,-2.6258,-2.6214,-2.6107,-2.6088,-2.601,-2.5942,-2.5831,-2.5732,-2.5651,-2.5614,-2.5645,-2.5601,-2.5629,-2.5611,-2.5612,-2.5608,-2.5655,-2.5657,-2.5658,-2.566,0,-2.6789,-2.6744,-2.6685,-2.6608,-2.6558,-2.6492,-2.642,-2.6396,-2.6274,-2.6228,-2.6156,-2.6103,-2.5998,-2.5919,-2.5825,-2.576,-2.5688,-2.5674,-2.5672,-2.5699,-2.5736,-2.5713,-2.5609,-2.5673,-2.5671,-2.567,-2.567,-2.5669,-2.6872,-2.6848,-2.6758,-2.6694,-2.663,-2.6565,-2.6529,-2.6451,-2.639,-2.6298,-2.6238,-2.6168,-2.6072,-2.5938,-2.5877,-2.5817,-2.5787,-2.5784,-2.5783,-2.5783,-2.5792,-2.5748,-2.5799,-2.5799,-2.5798,-2.5798,-2.5797,0,-2.696,-2.6897,-2.684,-2.6744,-2.6693,-2.6634,-2.6551,-2.651,-2.6451,-2.637,-2.6305,-2.6219,-2.6142,-2.6038,-2.5952,-2.5923,-2.5887,-2.5904,-2.5903,-2.5889,-2.5825,-2.5834,-2.5934,-2.5934,-2.5934,-2.5934,-2.5934,-2.5934,-2.7,-2.6955,-2.6899,-2.6819,-2.6754,-2.6687,-2.6645,-2.6582,-2.6517,-2.6427,-2.6364,-2.6298,-2.6205,-2.6112,-2.6036,-2.6007,-2.5978,-2.6004,-2.5965,-2.5906,-2.5894,-2.5882,-2.589,-2.6,-2.6,-2.6033,-2.6033,-2.6033]},{"header":{"parameterUnit":"m.s-1","parameterCategory":1,"la1":30.2991,"la2":30.254,"lo1":-89.0895,"lo2":-89.0444,"dy":0.0017,"dx":0.0017,"nx":28,"ny":28,"refTime":"2023-04-08T21:00:00:Z","depth":0,"parameterNumber":3,"parameterNumberName":"V-component_of_WINDS"},"data":[0,0,0,0,0,0,0,0,0,0,0,0,0,0,0,0,0,0,0,0,0,0,0,0,0,0,0,0,0,0,0,0,0,0,0,0,0,0,0,0,0,0,0,0,0,0,0,0,0,0,0,0,0,0,0,0,0,0,-2.561,-2.5613,0,-2.5857,-2.5859,-2.5862,-2.5902,-2.59,-2.5898,-2.5896,-2.6146,-2.6154,-2.6163,0,0,0,0,0,0,0,0,0,0,0,0,0,-2.5168,-2.5176,-2.561,-2.5613,-2.5616,-2.5856,-2.586,-2.5863,-2.5903,-2.59,-2.5898,-2.5895,-2.6143,-2.6153,-2.6164,0,0,0,0,0,0,0,0,0,0,0,0,0,-2.5382,-2.5179,-2.5609,-2.5665,-2.5673,-2.5855,-2.586,-2.5864,-2.5903,-2.59,-2.5897,-2.5894,-2.614,-2.6152,-2.6165,-2.6309,0,0,-2.6205,-2.621,0,0,0,0,0,0,0,0,-2.537,-2.5398,-2.5654,-2.5662,-2.567,-2.5846,-2.5795,-2.6013,-2.5904,-2.5816,-2.5896,-2.5892,-2.6048,-2.6069,-2.6122,-2.6321,-2.6332,-2.6206,-2.6214,-2.6219,-2.6223,0,0,0,0,0,0,0,-2.5355,-2.5388,-2.5707,-2.5657,-2.5668,-2.5676,-2.5703,-2.5837,-2.5947,-2.5823,-2.5827,-2.5855,-2.6052,-2.6109,-2.6128,-2.6335,-2.6206,-2.6217,-2.6225,-2.623,-2.6659,-2.6663,0,0,0,0,0,0,-2.5331,-2.5375,-2.57,-2.5715,-2.5509,-2.5686,-2.5716,-2.5792,-2.5946,-2.5966,-2.5858,-2.5856,-2.6089,-2.6113,-2.6137,-2.6313,-2.6219,-2.6231,-2.6239,-2.6656,-2.666,-2.6664,0,0,0,0,0,0,-2.5321,-2.5359,-2.569,-2.5546,-2.5589,-2.5697,-2.5782,-2.5799,-2.5856,-2.5972,-2.5991,-2.5896,-2.6087,-2.6119,-2.6265,-2.6322,-2.6237,-2.6249,-2.6651,-2.6657,-2.6662,-2.6667,0,0,0,0,0,0,-2.5308,-2.5356,-2.5413,-2.5547,-2.5596,-2.5816,-2.5786,-2.5806,-2.5879,-2.5879,-2.6013,-2.6032,-2.6087,-2.6245,-2.6278,-2.6338,-2.6259,-2.6647,-2.6654,-2.666,-2.6662,-2.6672,-2.668,0,0,0,0,0,-2.5292,-2.5405,-2.5416,-2.5455,-2.5671,-2.5819,-2.5847,-2.5909,-2.5883,-2.5941,-2.6014,-2.6028,-2.631,-2.626,-2.6297,-2.6362,-2.6643,-2.6652,-2.666,-2.6658,-2.667,-2.668,0,0,0,0,0,0,-2.5276,-2.5424,-2.5438,-2.5598,-2.5695,-2.5826,-2.5901,-2.592,-2.6027,-2.6022,-2.6093,-2.6123,-2.6265,-2.6328,-2.627,-2.6507,-2.6474,-2.649,-2.6461,-2.6473,-2.6482,-2.6464,-2.627,0,0,0,0,0,-2.5291,-2.54,-2.5523,-2.5652,-2.5701,-2.5792,-2.5859,-2.5897,-2.6001,-2.6043,-2.6127,-2.6226,-2.6336,-2.6408,-2.6517,-2.6671,-2.6699,-2.6733,-2.6742,-2.6749,-2.6762,-2.6844,-2.686,-2.6691,-2.6691,-2.669,0,0,-2.5323,-2.5417,-2.5482,-2.5651,-2.5732,-2.5841,-2.5827,-2.5944,-2.6025,-2.606,-2.6203,-2.6268,-2.6383,-2.6532,-2.6603,-2.659,-2.6815,-2.676,-2.6764,-2.6774,-2.6854,-2.687,-2.6884,-2.6696,-2.6695,-2.6694,0,0,-2.5438,-2.5521,-2.5636,-2.5716,-2.5837,-2.5897,-2.5924,-2.6051,-2.6095,-2.6239,-2.6266,-2.6362,-2.6553,-2.6632,-2.6698,-2.6836,-2.6851,-2.6869,-2.6917,-2.6995,-2.7009,-2.7021,-2.7068,-2.7084,-2.6881,-2.6882,-2.6882,0,-2.5462,-2.563,-2.5693,-2.5809,-2.5881,-2.5916,-2.6031,-2.6106,-2.6256,-2.6303,-2.6286,-2.6523,-2.6603,-2.677,-2.6803,-2.6855,-2.6886,-2.6855,-2.7002,-2.7015,-2.7027,-2.7072,-2.709,-2.6883,-2.6883,-2.6883,-2.6882,0,-2.5653,-2.5768,-2.5846,-2.599,-2.607,-2.6185,-2.6263,-2.6336,-2.6366,-2.6426,-2.657,-2.6666,-2.6793,-2.6835,-2.6866,-2.7005,-2.6993,-2.6988,-2.6957,-2.7043,-2.7087,-2.7105,-2.6885,-2.6884,-2.6884,-2.6883,0,0,-2.5768,-2.5941,-2.5969,-2.6032,-2.6166,-2.6256,-2.637,-2.6494,-2.6554,-2.6655,-2.6751,-2.6908,-2.6903,-2.6977,-2.7016,-2.7086,-2.7185,-2.7072,-2.7076,-2.7088,-2.734,-2.7342,-2.7361,-2.7195,-2.7199,-2.7202,-2.7329,0,-2.5897,-2.6104,-2.6162,-2.6335,-2.6441,-2.6473,-2.6572,-2.6663,-2.672,-2.6816,-2.6879,-2.6988,-2.6975,-2.7019,-2.7089,-2.7158,-2.7236,-2.715,-2.7283,-2.7287,-2.7253,-2.7385,-2.7389,-2.7505,-2.7347,-2.735,-2.7352,0,-2.6077,-2.6181,-2.6365,-2.6481,-2.6527,-2.6616,-2.6731,-2.6823,-2.6925,-2.6962,-2.7041,-2.7073,-2.719,-2.7151,-2.7311,-2.725,-2.7307,-2.7349,-2.7355,-2.7369,-2.7325,-2.7402,-2.7544,-2.7561,-2.738,-2.7378,-2.7376,0,-2.614,-2.6325,-2.6458,-2.6512,-2.6652,-2.6712,-2.6773,-2.6872,-2.6941,-2.7041,-2.7086,-2.7198,-2.7259,-2.7343,-2.7403,-2.737,-2.7556,-2.7523,-2.7587,-2.7586,-2.7626,-2.7623,-2.7778,-2.7664,-2.7663,-2.7663,-2.7663,0,-2.6279,-2.639,-2.6488,-2.657,-2.6693,-2.6756,-2.6876,-2.6938,-2.7024,-2.7116,-2.715,-2.7236,-2.731,-2.7404,-2.745,-2.7573,-2.7601,-2.7632,-2.7643,-2.7629,-2.7625,-2.7667,-2.766,-2.7668,-2.7667,-2.7666,-2.7665,0,-2.6371,-2.6442,-2.6588,-2.6707,-2.6739,-2.6825,-2.6925,-2.7004,-2.7061,-2.7176,-2.7207,-2.7295,-2.7407,-2.7475,-2.7617,-2.7648,-2.7783,-2.7791,-2.7749,-2.7754,-2.7813,-2.7806,-2.8001,-2.8029,-2.7896,-2.7897,-2.7898,0,-2.6455,-2.6541,-2.6668,-2.6732,-2.6793,-2.6897,-2.6967,-2.703,-2.7101,-2.722,-2.7284,-2.7398,-2.7492,-2.7668,-2.7744,-2.7851,-2.7861,-2.7922,-2.7878,-2.7859,-2.786,-2.7854,-2.7861,-2.793,-2.7931,-2.7932,-2.7933,0,-2.6595,-2.6625,-2.6726,-2.6837,-2.6919,-2.701,-2.7101,-2.715,-2.7228,-2.7305,-2.742,-2.7493,-2.7636,-2.7747,-2.786,-2.7919,-2.7938,-2.7945,-2.7965,-2.7952,-2.7923,-2.7937,-2.7768,-2.7941,-2.794,-2.794,-2.7939,-2.7939,-2.6686,-2.6762,-2.6862,-2.6971,-2.7045,-2.7127,-2.7206,-2.7271,-2.7369,-2.7491,-2.7521,-2.764,-2.7734,-2.7888,-2.7949,-2.8041,-2.8031,-2.8061,-2.8068,-2.8074,-2.8075,-2.7908,-2.8061,-2.8061,-2.8061,-2.8061,-2.8061,0,-2.6826,-2.6891,-2.6991,-2.7116,-2.72,-2.721,-2.7309,-2.7379,-2.7484,-2.7571,-2.7662,-2.7791,-2.7897,-2.7979,-2.8087,-2.8145,-2.8156,-2.8171,-2.8167,-2.818,-2.8078,-2.8049,-2.816,-2.816,-2.816,-2.816,-2.816,-2.816,-2.691,-2.7038,-2.7079,-2.7242,-2.7306,-2.7424,-2.7479,-2.7553,-2.7623,-2.7765,-2.7854,-2.7907,-2.799,-2.8104,-2.82,-2.8221,-2.8259,-2.8272,-2.8294,-2.8198,-2.8187,-2.8177,-2.815,-2.828,-2.828,-2.8388,-2.8389,-2.839]}]]